Regional Weather Roundup
Issued by NWS Newport/Morehead, NC

Current Version | Previous Version | Graphics & Text | Print | Product List | Glossary On
Versions: 1 2 3 4 5 6 7 8 9 10 11 12 13 14 15 16 17 18 19 20 21 22 23 24 25 26 27 28 29 30 31 32 33 34 35 36 37 38 39 40 41 42 43 44 45 46 47 48 49 50
000 ASUS42 KMHX 072113 RWRMHX WEATHER ROUNDUP FOR EASTERN NORTH CAROLINA NATIONAL WEATHER SERVICE NEWPORT/MOREHEAD CITY NC 400 PM EST SUN FEB 07 2016 NOTE: "FAIR" INDICATES FEW OR NO CLOUDS BELOW 12,000 FEET WITH NO SIGNIFICANT WEATHER AND/OR OBSTRUCTIONS TO VISIBILITY NCZ015>017-031-032-045>047-102-103-072200- NORTH COAST CITY SKY/WX TMP DP RH WIND PRES REMARKS EDENTON LGT RAIN 40 35 85 N18G28 29.81S ELIZABETH CITY RAIN 40 36 86 N30G39 29.79F FOG KITTY HAWK RAIN 44 42 89 N17G29 29.69F MANTEO LGT RAIN 44 43 97 NE26G44 29.70F $$ NCZ045>047-081-094-103-104-072200- CENTRAL COAST CITY SKY/WX TMP DP RH WIND PRES REMARKS FRISCO RAIN 48 46 93 N20G41 29.53F FOG SWANQUARTER N/A 41 N/A N/A N10G35 29.62F $$ NCZ095-097-098-100-101-072200- SOUTHERN COAST CITY SKY/WX TMP DP RH WIND PRES REMARKS BEAUFORT LGT RAIN 40 38 93 N23G43 29.61R FOG CEDAR ISLAND N/A 43 N/A N/A VRB39G60 29.68R JACKSONVILLE RAIN 36 32 85 N25G37 29.72F PINEY ISLAND CLOUDY N/A N/A N/A N37G52 29.61S WILMINGTON RAIN 36 31 82 N23G31 29.72S $$ NCZ011>013-027>030-043-044-078>080-089-090>093-098-072200- COASTAL PLAIN CITY SKY/WX TMP DP RH WIND PRES REMARKS AHOSKIE CLOUDY 40 25 56 N14G23 29.87F CLINTON RAIN 36 34 92 N13G26 29.83F ELIZABETHTOWN LGT RAIN 36 33 92 N7 29.82F GOLDSBORO CLOUDY 36 36 100 N18 29.81F GREENVILLE LGT RAIN 36 32 87 N13G20 29.85S HAVELOCK LGT RAIN 38 34 85 N32G46 29.66S FOG KENANSVILLE MIX PCPN 35 32 88 N13G22 29.82S KINSTON LGT SNOW 36 32 87 N17G25 29.81F NEW BERN RAIN 36 33 89 N21G41 29.73F FOG RICHLANDS CLOUDY 36 27 69 NW13G25 29.76S ROCKY MOUNT LGT RAIN 39 26 59 N17 29.86F WASHINGTON LGT RAIN 36 32 87 N15G24 29.78S WHITEVILLE LGT RAIN 36 33 88 NW6G23 29.80F $$ AMZ130-135-150-152-154-156-158-170-250-252-270-ANZ085-086-088-633-658-670-072200- MARINE OBSERVATIONS STATION/POSITION TIME TEMP WIND PRES WAVE SWELL AIR SEA DIR/SP/G HT/PER HT/PER (UTC) (F) (DEG/KT/KT) (MB) (FT/S) (FT/S) CHESAPEAKE LIGHT 2000 43 20/ 29/ 32 1011.5 64 E VA BEACH 2050 51 54 30/ 33/ 39 1006.2 12/ 8 2/13 DUCK 2000 43 44 10/ 28/ 32 1006.6 2 E DUCK 2011 44 N/A 10/ 8 2/11 OREGON INLET 2000 47 45 10/ 20/ 30 1004.8 13E OREGON INLT 2100 47 N/A 12/ 8 3/11 HATTERAS CG 2000 48 47 10/ 35/ 41 1001.0 DIAMOND BUOY 2050 57 70 20/ 39/ 51 995.8 16/ 8 CAPE LOOKOUT NOT AVBL BEAUFORT LAB 2000 41 47 360/ 31/ 40 1000.7 30 SE NEW RVR IN 2008 41 61 996.9 30 SE NEW RVR IN 2025 61 N/A 17/ 8 5/11 27 SE WRIGHTSVLE 2008 44 64 360/ 39/ 54 997.6 5 SE WRIGHTSVLE 2008 38 52 360/ 35/ 45 1003.7 225 S CAPE HAT 2050 62 69 270/ 29/ 37 N/A 13/ 8 41 SE CHARLESTON 2050 45 66 330/ 35/ 45 1007.2 12/ 7 2/11 $$

USA.gov is the U.S. government's official web portal to all federal, state and local government web resources and services.